When you browse on this site, cookies collect data to enhance your experience and personalize the content and advertising you see.
Visit our Privacy Policy to learn more. By continuing to use the site, you agree to this use of cookies and data.
  • In Österreich
  • Länderverzeichnis
  • Für 7 Tage
  • Wassertemperatur
  • Satellitenkarten
  • Wetterkarte
  • News
  • Widgets
  • user-avatar
    Anmelden

    Stündliche Wetter Podgorodnee

    Heute, 20 Februar, Mittwoch

    Zeit Temperatur Niederschläge Wind Luftdruck Luftfeuchtigkeit
    00:00 0°C° 0.1 mm 4 m/S 733 mmHg 93%
    01:00 0°C° 0.1 mm 4 m/S 732 mmHg 93%
    02:00 0°C° 0.1 mm 4 m/S 732 mmHg 93%
    03:00 0°C° 0.2 mm 4 m/S 732 mmHg 93%
    04:00 0°C° 0.2 mm 4 m/S 731 mmHg 93%
    05:00 0°C° 0.2 mm 4 m/S 731 mmHg 93%
    06:00 0°C° 0.1 mm 4 m/S 731 mmHg 93%
    07:00 0°C° 0.1 mm 4 m/S 731 mmHg 93%
    08:00 0°C° 0.1 mm 4 m/S 731 mmHg 92%
    09:00 0°C° 0.1 mm 4 m/S 731 mmHg 92%
    10:00 0°C° 0.1 mm 4 m/S 730 mmHg 91%
    11:00 0°C° 0.1 mm 5 m/S 730 mmHg 90%
    12:00 0°C° 0.1 mm 5 m/S 730 mmHg 89%
    13:00 0°C° 0.1 mm 5 m/S 730 mmHg 88%
    14:00 0°C° 0.1 mm 5 m/S 729 mmHg 87%
    15:00 0°C° 0.5 mm 5 m/S 729 mmHg 88%
    16:00 0°C° 0.5 mm 5 m/S 729 mmHg 88%
    17:00 0°C° 0.5 mm 5 m/S 729 mmHg 88%
    18:00 -1°C° 0.4 mm 5 m/S 729 mmHg 85%
    19:00 -2°C° 0.4 mm 5 m/S 729 mmHg 81%
    20:00 -4°C° 0.4 mm 5 m/S 729 mmHg 77%
    21:00 -5°C° 0.2 mm 5 m/S 730 mmHg 80%
    22:00 -5°C° 0.2 mm 6 m/S 730 mmHg 83%
    23:00 -5°C° 0.2 mm 6 m/S 730 mmHg 86%

    Morgen, 21 Februar, Donnerstag

    Zeit Temperatur Niederschläge Wind Luftdruck Luftfeuchtigkeit
    00:00 -6°C° 0.2 mm 6 m/S 731 mmHg 84%
    01:00 -6°C° 0.2 mm 6 m/S 731 mmHg 83%
    02:00 -8°C° 0.2 mm 6 m/S 732 mmHg 81%
    03:00 -8°C° 0.1 mm 6 m/S 732 mmHg 79%
    04:00 -8°C° 0.1 mm 6 m/S 733 mmHg 78%
    05:00 -8°C° 0.1 mm 7 m/S 733 mmHg 76%
    06:00 -9°C° 0.1 mm 7 m/S 734 mmHg 76%
    07:00 -9°C° 0.1 mm 7 m/S 734 mmHg 77%
    08:00 -9°C° 0.1 mm 7 m/S 735 mmHg 77%
    09:00 -9°C° 0.1 mm 7 m/S 736 mmHg 76%
    10:00 -9°C° 0.1 mm 7 m/S 737 mmHg 75%
    11:00 -9°C° 0.1 mm 7 m/S 738 mmHg 74%
    12:00 -9°C° 0.1 mm 7 m/S 738 mmHg 73%
    13:00 -9°C° 0.1 mm 6 m/S 739 mmHg 72%
    14:00 -9°C° 0.1 mm 6 m/S 740 mmHg 71%
    15:00 -10°C° 0 mm 6 m/S 740 mmHg 72%
    16:00 -10°C° 0 mm 6 m/S 741 mmHg 72%
    17:00 -11°C° 0 mm 5 m/S 742 mmHg 72%
    18:00 -12°C° 0 mm 5 m/S 742 mmHg 73%
    19:00 -12°C° 0 mm 5 m/S 743 mmHg 73%
    20:00 -12°C° 0 mm 5 m/S 744 mmHg 74%
    21:00 -13°C° 0 mm 5 m/S 744 mmHg 74%
    22:00 -12°C° 0 mm 4 m/S 745 mmHg 74%
    23:00 -12°C° 0 mm 4 m/S 745 mmHg 74%

    übermorgen, 22 Februar, Freitag

    Zeit Temperatur Niederschläge Wind Luftdruck Luftfeuchtigkeit
    00:00 -14°C° 0 mm 4 m/S 746 mmHg 75%
    01:00 -14°C° 0 mm 4 m/S 747 mmHg 75%
    02:00 -14°C° 0 mm 4 m/S 747 mmHg 76%
    03:00 -14°C° 0 mm 4 m/S 748 mmHg 76%
    04:00 -14°C° 0 mm 5 m/S 748 mmHg 76%
    05:00 -15°C° 0 mm 5 m/S 748 mmHg 76%
    06:00 -14°C° 0 mm 5 m/S 749 mmHg 76%
    07:00 -14°C° 0 mm 5 m/S 750 mmHg 75%
    08:00 -14°C° 0 mm 5 m/S 750 mmHg 74%
    09:00 -14°C° 0 mm 6 m/S 750 mmHg 71%
    10:00 -12°C° 0 mm 6 m/S 751 mmHg 68%
    11:00 -13°C° 0 mm 7 m/S 751 mmHg 65%
    12:00 -12°C° 0 mm 7 m/S 751 mmHg 64%
    13:00 -12°C° 0 mm 7 m/S 751 mmHg 63%
    14:00 -12°C° 0 mm 7 m/S 751 mmHg 63%
    15:00 -11°C° 0 mm 6 m/S 751 mmHg 65%
    16:00 -11°C° 0 mm 6 m/S 752 mmHg 68%
    17:00 -11°C° 0 mm 6 m/S 752 mmHg 71%
    18:00 -12°C° 0 mm 5 m/S 753 mmHg 72%
    19:00 -12°C° 0 mm 5 m/S 753 mmHg 74%
    20:00 -12°C° 0 mm 5 m/S 754 mmHg 76%
    21:00 -13°C° 0 mm 5 m/S 754 mmHg 77%
    22:00 -12°C° 0 mm 4 m/S 754 mmHg 78%
    23:00 -14°C° 0 mm 4 m/S 755 mmHg 78%

    23 Februar, Samstag

    Zeit Temperatur Niederschläge Wind Luftdruck Luftfeuchtigkeit
    00:00 -13°C° 0 mm 3 m/S 755 mmHg 80%
    01:00 -14°C° 0 mm 3 m/S 755 mmHg 82%
    02:00 -14°C° 0 mm 3 m/S 756 mmHg 84%
    03:00 -14°C° 0 mm 3 m/S 756 mmHg 86%
    04:00 -15°C° 0 mm 3 m/S 756 mmHg 87%
    05:00 -15°C° 0 mm 3 m/S 756 mmHg 89%
    06:00 -15°C° 0 mm 3 m/S 756 mmHg 89%
    07:00 -15°C° 0 mm 3 m/S 756 mmHg 90%
    08:00 -15°C° 0 mm 3 m/S 756 mmHg 90%
    09:00 -13°C° 0 mm 2 m/S 756 mmHg 85%
    10:00 -12°C° 0 mm 2 m/S 756 mmHg 79%
    11:00 -10°C° 0 mm 2 m/S 756 mmHg 73%
    12:00 -9°C° 0 mm 2 m/S 756 mmHg 71%
    13:00 -8°C° 0 mm 2 m/S 755 mmHg 69%
    14:00 -8°C° 0 mm 2 m/S 755 mmHg 66%
    15:00 -8°C° 0 mm 2 m/S 755 mmHg 69%
    16:00 -7°C° 0 mm 1 m/S 754 mmHg 72%
    17:00 -7°C° 0 mm 1 m/S 754 mmHg 74%
    18:00 -7°C° 0 mm 1 m/S 754 mmHg 76%
    19:00 -7°C° 0 mm 1 m/S 754 mmHg 77%
    20:00 -7°C° 0 mm 1 m/S 754 mmHg 79%
    21:00 -7°C° 0.1 mm 1 m/S 753 mmHg 82%
    22:00 -7°C° 0.1 mm 1 m/S 753 mmHg 84%
    23:00 -7°C° 0.1 mm 1 m/S 753 mmHg 87%

    24 Februar, Sonntag

    Zeit Temperatur Niederschläge Wind Luftdruck Luftfeuchtigkeit
    00:00 -7°C° 0 mm 1 m/S 753 mmHg 89%
    01:00 -7°C° 0 mm 1 m/S 753 mmHg 91%
    02:00 -7°C° 0 mm 1 m/S 753 mmHg 92%
    03:00 -7°C° 0 mm 1 m/S 754 mmHg 93%
    04:00 -7°C° 0 mm 1 m/S 754 mmHg 93%
    05:00 -7°C° 0 mm 1 m/S 754 mmHg 94%
    06:00 -7°C° 0 mm 1 m/S 754 mmHg 94%
    07:00 -6°C° 0 mm 0 m/S 755 mmHg 94%
    08:00 -6°C° 0 mm 0 m/S 755 mmHg 94%
    09:00 -5°C° 0 mm 0 m/S 755 mmHg 90%
    10:00 -4°C° 0 mm 0 m/S 756 mmHg 87%
    11:00 -2°C° 0 mm 1 m/S 756 mmHg 83%
    12:00 -2°C° 0 mm 1 m/S 756 mmHg 82%
    13:00 -2°C° 0 mm 1 m/S 756 mmHg 81%
    14:00 -1°C° 0 mm 1 m/S 756 mmHg 80%
    15:00 -2°C° 0 mm 1 m/S 756 mmHg 83%
    16:00 -2°C° 0 mm 1 m/S 756 mmHg 86%
    17:00 -2°C° 0 mm 1 m/S 756 mmHg 89%
    18:00 -2°C° 0 mm 1 m/S 756 mmHg 91%
    19:00 -3°C° 0 mm 1 m/S 756 mmHg 92%
    20:00 -3°C° 0 mm 1 m/S 756 mmHg 94%
    21:00 -3°C° 0 mm 1 m/S 756 mmHg 94%
    22:00 -4°C° 0 mm 1 m/S 755 mmHg 95%
    23:00 -4°C° 0 mm 1 m/S 755 mmHg 96%

    25 Februar, Montag

    Zeit Temperatur Niederschläge Wind Luftdruck Luftfeuchtigkeit
    00:00 -4°C° 0 mm 1 m/S 755 mmHg 96%
    01:00 -4°C° 0 mm 1 m/S 754 mmHg 96%
    02:00 -7°C° 0 mm 2 m/S 754 mmHg 97%
    03:00 -6°C° 0 mm 2 m/S 753 mmHg 97%
    04:00 -6°C° 0 mm 2 m/S 753 mmHg 97%
    05:00 -5°C° 0 mm 2 m/S 752 mmHg 97%
    06:00 -5°C° 0.1 mm 2 m/S 752 mmHg 97%
    07:00 -4°C° 0.1 mm 2 m/S 752 mmHg 97%
    08:00 -4°C° 0.1 mm 2 m/S 751 mmHg 97%
    09:00 -3°C° 0.1 mm 2 m/S 751 mmHg 96%
    10:00 -2°C° 0.1 mm 2 m/S 751 mmHg 95%
    11:00 -1°C° 0.1 mm 2 m/S 751 mmHg 94%
    12:00 -1°C° 0 mm 3 m/S 751 mmHg 91%
    13:00 0°C° 0 mm 3 m/S 751 mmHg 89%
    14:00 0°C° 0 mm 3 m/S 750 mmHg 86%
    15:00 -1°C° 0 mm 3 m/S 750 mmHg 87%
    16:00 -1°C° 0 mm 2 m/S 750 mmHg 88%
    17:00 -2°C° 0 mm 2 m/S 750 mmHg 90%
    18:00 -2°C° 0 mm 2 m/S 750 mmHg 90%
    19:00 -4°C° 0 mm 3 m/S 750 mmHg 90%
    20:00 -4°C° 0 mm 3 m/S 749 mmHg 90%
    21:00 -4°C° 0 mm 3 m/S 749 mmHg 92%
    22:00 -4°C° 0 mm 3 m/S 749 mmHg 93%
    23:00 -4°C° 0 mm 3 m/S 749 mmHg 94%
    Mehr zeigen